LEMUR-2-REDFERN-GOES (42059 NORAD) Tracking and Keplerian Element Data

This shows tracking and keplerian element data for the satellite.

Feedback or suggestion? Click here.




ElementValue
Catalog42059
NameLEMUR-2-REDFERN-GOES
Epoch Orbit10036
Epoch Day339.01149047
Epoch Year2018
RAAN167.8673
Inclination51.6164
Eccentricity0.0006595
Argument of Perigee274.668
Mean Anonmoly85.3593
Mean Motion16.37893608
Decay Rate0.06489327
L11 42059U 98067LA 18339.01149047 .06489327 12347-4 60049-3 0 9992
L22 42059 51.6164 167.8673 0006595 274.6680 85.3593 16.37893608100365

Live tracking and technical data element details for LEMUR-2-REDFERN-GOES (NORAD 42059). LEMUR-2-REDFERN-GOES can be tracked NOW for your location showing map with azimuth and elevation plus other details from your city location.

Track the satellite on the map from your city or location and see movement details for azimuth, elevation, latitude, longitude, range, height, and movement on the map or in text.







IsCatalogInMostPopularTable: catalog: 42059, numindb: 181
Update: records affected: 1



GetName: 42059 LEMUR-2-REDFERN-GOES

Hit Count: updated at: Tue, 22 Jan 2019 10:42:25 GMT